Regional Weather Roundup
Issued by NWS Bismarck, ND

Home | Current Version | Previous Version | Text Only | Print | Product List | Glossary On
Versions: 1 2 3 4 5 6 7 8 9 10 11 12 13 14 15 16 17 18 19 20 21 22 23 24 25 26 27 28 29 30 31 32 33 34 35 36 37 38 39 40 41 42 43 44 45 46 47 48 49 50
000
ASUS43 KBIS 250302
RWRBIS

NWR BROADCAST TEXT
NATIONAL WEATHER SERVICE BISMARCK ND
1000 PM CDT SAT JUN 24 2017

NOTE: "FAIR" INDICATES FEW OR NO CLOUDS BELOW 12,000 FEET WITH NO
SIGNIFICANT WEATHER AND/OR OBSTRUCTIONS TO VISIBILITY.


CITY           SKY/WX    TMP DP  RH WIND       PRES   REMARKS
WILLISTON      CLEAR     55  36  48 CALM      30.26F
MINOT          CLEAR     52  39  61 NW6       30.24S
MINOT AFB      NOT AVBL
BISMARCK       PTCLDY    58  38  47 N8        30.27R
DICKINSON      CLEAR     55  31  39 N7        30.28S
GARRISON         N/A     48  38  68 N7        30.26R
HETTINGER ARPT CLEAR     56  31  38 N10       30.31R
JAMESTOWN      CLOUDY    54  46  74 NW15      30.21R
HAZEN          FAIR      52  36  54 N3        30.29R
LINTON         FAIR     N/A N/A N/A N7        30.28R
MANDAN         FAIR      54  37  54 NW5       30.28R
STANLEY        FAIR      54  41  62 CALM      30.29R
TIOGA          FAIR      54  39  58 CALM      30.28S
WATFORD CITY   FAIR      52  41  66 CALM      30.27S
$$

CITY           SKY/WX    TMP DP  RH WIND       PRES   REMARKS
GRAND FORKS    LGT RAIN  52  47  83 NW12      30.16R
GRAND FORKS AF CLOUDY    51  46  81 NW8       30.18R
DEVILS LAKE    MOCLDY    52  46  80 NW7       30.21R
FARGO          CLOUDY    51  47  86 NW17G28   30.17R
GRAFTON        MOCLDY    52  46  82 NW10      30.18R
GWINNER        MOCLDY    55  43  62 N15G22    30.20R
LANGDON        FAIR      48  45  87 N7        30.19R
ROLLA            N/A     46  46 100 NW8       30.22S
$$

CITY           SKY/WX    TMP DP  RH WIND       PRES   REMARKS
ABERDEEN       CLOUDY    58  44  60 NW14      30.22R
MOBRIDGE       CLEAR     57  39  51 N8        30.24R
BUFFALO          N/A     61  30  31 NE12      30.25R
RAPID CITY     CLEAR     58  30  34 N9        30.29R
GLASGOW        CLEAR     63  36  36 NE7       30.26S
SIDNEY         PTCLDY    59  39  47 CALM      30.28S
WOLF POINT     CLEAR     67  33  28 CALM      30.26S
GLENDIVE       CLEAR     61  33  35 E6        30.29R
MILES CITY     CLOUDY    67  26  21 NE9       30.28S
BAKER          CLEAR     58  31  35 E6        30.31R
$$

CITY           SKY/WX    TMP DP  RH WIND       PRES   REMARKS
BILLINGS       PTCLDY    66  37  34 NE8       30.31R
GREAT FALLS    CLOUDY    65  39  38 NE16      30.31R
$$




USA.gov is the U.S. government's official web portal to all federal, state and local government web resources and services.